timestamp,wind_dir_avg,wind_spd_avg,wind_spd_max_dir,wind_spd_gust,battery_voltage,lat,long
2021-10-20 00:04:01+00:00,76.0,2.09,80.0,2.34,12.65,47.59359,-54.27349
2021-10-20 00:14:01+00:00,117.0,2.04,125.0,2.72,12.65,47.59359,-54.27349
2021-10-20 00:24:01+00:00,140.0,2.48,139.0,2.69,12.65,47.59359,-54.27349
2021-10-20 00:34:01+00:00,167.0,1.55,163.0,2.02,12.65,47.59359,-54.27349
2021-10-20 00:44:01+00:00,153.0,1.79,158.0,2.09,12.65,47.59359,-54.27349
2021-10-20 00:54:01+00:00,154.0,1.99,146.0,2.42,12.65,47.59359,-54.27349
2021-10-20 01:04:01+00:00,171.0,1.7,163.0,2.21,12.65,47.59359,-54.27349
2021-10-20 01:14:01+00:00,92.0,0.73,95.0,0.93,12.57,47.59359,-54.27349
2021-10-20 01:24:01+00:00,58.0,1.64,58.0,1.73,12.57,47.59359,-54.27349
2021-10-20 01:34:01+00:00,37.0,1.57,37.0,1.74,12.57,47.59359,-54.27349
2021-10-20 01:44:01+00:00,15.0,2.78,16.0,3.11,12.57,47.59359,-54.27349
2021-10-20 01:54:01+00:00,2.0,2.86,6.0,3.54,12.57,47.59359,-54.27349
2021-10-20 02:04:01+00:00,349.0,3.53,351.0,4.07,12.57,47.59359,-54.27349
2021-10-20 02:14:00+00:00,2.0,3.41,2.0,3.82,12.57,47.59359,-54.27349
2021-10-20 02:24:00+00:00,11.0,3.06,18.0,3.63,12.57,47.59359,-54.27349
2021-10-20 02:34:00+00:00,26.0,3.78,30.0,4.15,12.57,47.59359,-54.27349
2021-10-20 02:44:00+00:00,23.0,3.68,23.0,4.15,12.57,47.59359,-54.27349
2021-10-20 02:54:00+00:00,15.0,4.07,14.0,4.73,12.57,47.59359,-54.27349
2021-10-20 03:04:00+00:00,15.0,3.76,19.0,4.61,12.57,47.59359,-54.27349
2021-10-20 03:14:01+00:00,29.0,3.41,30.0,3.68,12.57,47.59359,-54.27349
2021-10-20 03:24:01+00:00,58.0,3.4,54.0,3.9,12.57,47.59359,-54.27349
2021-10-20 03:34:01+00:00,61.0,3.56,61.0,3.97,12.57,47.59359,-54.27349
2021-10-20 03:44:01+00:00,71.0,3.67,70.0,4.0,12.57,47.59359,-54.27349
2021-10-20 03:54:01+00:00,71.0,3.43,68.0,3.78,12.57,47.59359,-54.27349
2021-10-20 04:04:01+00:00,77.0,2.99,71.0,3.65,12.57,47.59359,-54.27349
2021-10-20 04:14:00+00:00,67.0,2.86,61.0,3.07,12.57,47.59359,-54.27349
2021-10-20 04:24:00+00:00,73.0,3.35,76.0,3.74,12.57,47.59359,-54.27349
2021-10-20 04:34:00+00:00,64.0,3.68,56.0,3.97,12.57,47.59359,-54.27349
2021-10-20 04:44:00+00:00,28.0,3.62,33.0,4.09,12.57,47.59359,-54.27349
2021-10-20 04:54:00+00:00,47.0,3.6,42.0,4.05,12.57,47.59359,-54.27349
2021-10-20 05:04:00+00:00,37.0,4.23,36.0,4.56,12.57,47.59359,-54.27349
2021-10-20 05:14:01+00:00,43.0,4.59,49.0,5.45,12.57,47.59359,-54.27349
2021-10-20 05:24:01+00:00,42.0,5.09,42.0,5.4,12.57,47.59359,-54.27349
2021-10-20 05:34:01+00:00,42.0,5.62,43.0,6.02,12.57,47.59359,-54.27349
2021-10-20 05:44:01+00:00,34.0,5.9,41.0,6.57,12.57,47.59359,-54.27349
2021-10-20 05:54:01+00:00,37.0,5.82,38.0,6.35,12.57,47.59359,-54.27349
2021-10-20 06:04:01+00:00,59.0,6.33,60.0,7.11,12.57,47.59359,-54.27349
2021-10-20 06:14:01+00:00,55.0,6.41,58.0,7.64,12.49,47.59359,-54.27349
2021-10-20 06:24:01+00:00,62.0,5.53,61.0,6.09,12.49,47.59359,-54.27349
2021-10-20 06:34:01+00:00,73.0,5.0,68.0,6.38,12.49,47.59359,-54.27349
2021-10-20 06:44:01+00:00,60.0,5.96,66.0,7.1,12.49,47.59359,-54.27349
2021-10-20 06:54:01+00:00,54.0,5.72,54.0,6.16,12.49,47.59359,-54.27349
2021-10-20 07:04:01+00:00,52.0,5.33,50.0,6.01,12.49,47.59359,-54.27349
2021-10-20 07:14:00+00:00,52.0,5.27,51.0,5.76,12.49,47.59359,-54.27349
2021-10-20 07:24:00+00:00,42.0,6.0,38.0,6.86,12.49,47.59359,-54.27349
2021-10-20 07:34:00+00:00,44.0,5.96,46.0,6.7,12.49,47.59359,-54.27349
2021-10-20 07:44:00+00:00,45.0,6.22,42.0,6.9,12.49,47.59359,-54.27349
2021-10-20 07:54:00+00:00,50.0,5.83,48.0,6.48,12.49,47.59359,-54.27349
2021-10-20 08:04:00+00:00,50.0,5.83,50.0,6.97,12.49,47.59359,-54.27349
2021-10-20 08:14:00+00:00,51.0,5.45,46.0,6.06,12.49,47.59359,-54.27349
2021-10-20 08:24:00+00:00,43.0,6.76,45.0,7.25,12.49,47.59359,-54.27349
2021-10-20 08:34:00+00:00,51.0,6.49,55.0,7.24,12.49,47.59359,-54.27349
2021-10-20 08:44:00+00:00,50.0,6.89,45.0,7.94,12.49,47.59359,-54.27349
2021-10-20 08:54:00+00:00,51.0,6.67,47.0,7.38,12.49,47.59359,-54.27349
2021-10-20 09:04:00+00:00,47.0,7.64,48.0,8.36,12.49,47.59359,-54.27349
2021-10-20 09:14:01+00:00,42.0,7.38,42.0,7.85,12.49,47.59359,-54.27349
2021-10-20 09:24:01+00:00,45.0,7.17,47.0,7.82,12.49,47.59359,-54.27349
2021-10-20 09:34:01+00:00,43.0,6.98,44.0,7.58,12.49,47.59359,-54.27349
2021-10-20 09:44:01+00:00,39.0,7.61,40.0,8.25,12.49,47.59359,-54.27349
2021-10-20 09:54:01+00:00,51.0,6.69,48.0,7.47,12.49,47.59359,-54.27349
2021-10-20 10:04:01+00:00,46.0,7.68,45.0,8.61,12.49,47.59359,-54.27349
2021-10-20 10:14:01+00:00,49.0,7.07,51.0,8.03,12.41,47.59359,-54.27349
2021-10-20 10:24:01+00:00,49.0,5.86,48.0,6.44,12.41,47.59359,-54.27349
2021-10-20 10:34:01+00:00,53.0,5.36,55.0,5.86,12.41,47.59359,-54.27349
2021-10-20 10:44:01+00:00,41.0,5.98,39.0,6.4,12.41,47.59359,-54.27349
2021-10-20 10:54:01+00:00,49.0,5.46,47.0,6.12,12.41,47.59359,-54.27349
2021-10-20 11:04:01+00:00,41.0,5.93,40.0,6.33,12.41,47.59359,-54.27349
2021-10-20 11:14:01+00:00,42.0,6.42,44.0,7.15,12.49,47.59359,-54.27349
2021-10-20 11:24:01+00:00,41.0,6.62,42.0,6.94,12.49,47.59359,-54.27349
2021-10-20 11:34:01+00:00,38.0,6.41,37.0,7.1,12.49,47.59359,-54.27349
2021-10-20 11:44:01+00:00,38.0,6.42,37.0,6.88,12.49,47.59359,-54.27349
2021-10-20 11:54:01+00:00,38.0,6.3,35.0,6.82,12.49,47.59359,-54.27349
2021-10-20 12:04:01+00:00,34.0,6.24,34.0,7.0,12.49,47.59359,-54.27349
2021-10-20 12:14:01+00:00,32.0,6.28,34.0,6.89,12.57,47.59359,-54.27349
2021-10-20 12:24:01+00:00,27.0,6.04,28.0,6.73,12.57,47.59359,-54.27349
2021-10-20 12:34:01+00:00,32.0,5.94,33.0,6.7,12.57,47.59359,-54.27349
2021-10-20 12:44:01+00:00,30.0,6.14,30.0,6.75,12.57,47.59359,-54.27349
2021-10-20 12:54:01+00:00,40.0,5.7,38.0,6.12,12.57,47.59359,-54.27349
2021-10-20 13:04:01+00:00,49.0,5.07,49.0,5.37,12.57,47.59359,-54.27349
2021-10-20 13:14:01+00:00,45.0,5.2,42.0,5.76,12.65,47.59359,-54.27349
2021-10-20 13:24:01+00:00,52.0,5.09,55.0,5.57,12.65,47.59359,-54.27349
2021-10-20 13:34:01+00:00,51.0,5.26,51.0,6.14,12.65,47.59359,-54.27349
2021-10-20 13:44:01+00:00,56.0,5.05,56.0,5.51,12.65,47.59359,-54.27349
2021-10-20 13:54:01+00:00,56.0,4.72,54.0,5.17,12.65,47.59359,-54.27349
2021-10-20 14:04:01+00:00,103.0,3.02,108.0,4.89,12.65,47.59359,-54.27349
2021-10-20 14:14:01+00:00,111.0,2.19,119.0,2.81,12.81,47.59359,-54.27349
2021-10-20 14:24:01+00:00,82.0,2.11,90.0,3.53,12.81,47.59359,-54.27349
2021-10-20 14:34:01+00:00,90.0,2.44,81.0,3.58,12.81,47.59359,-54.27349
2021-10-20 14:44:01+00:00,82.0,2.04,78.0,2.7,12.81,47.59359,-54.27349
2021-10-20 14:54:01+00:00,69.0,2.31,59.0,2.67,12.81,47.59359,-54.27349
2021-10-20 15:04:01+00:00,71.0,2.46,56.0,2.95,12.81,47.59359,-54.27349
2021-10-20 15:14:01+00:00,78.0,2.53,76.0,3.06,13.37,47.59359,-54.27349
2021-10-20 15:24:01+00:00,84.0,2.08,79.0,2.47,13.37,47.59359,-54.27349
2021-10-20 15:34:01+00:00,67.0,3.02,64.0,3.35,13.37,47.59359,-54.27349
2021-10-20 15:44:01+00:00,66.0,2.45,59.0,2.68,13.37,47.59359,-54.27349
2021-10-20 15:54:01+00:00,47.0,1.98,51.0,2.18,13.37,47.59359,-54.27349
2021-10-20 16:04:01+00:00,28.0,1.18,37.0,1.42,13.37,47.59359,-54.27349
2021-10-20 16:14:01+00:00,344.0,1.17,357.0,1.45,13.37,47.59359,-54.27349
2021-10-20 16:24:01+00:00,327.0,1.13,324.0,1.53,13.37,47.59359,-54.27349
2021-10-20 16:34:01+00:00,24.0,1.73,30.0,1.98,13.37,47.59359,-54.27349
2021-10-20 16:44:01+00:00,0.0,1.82,0.0,1.98,13.37,47.59359,-54.27349
2021-10-20 16:54:01+00:00,357.0,1.68,1.0,1.84,13.37,47.59359,-54.27349
2021-10-20 17:04:01+00:00,341.0,1.7,340.0,1.88,13.37,47.59359,-54.27349
2021-10-20 17:14:01+00:00,333.0,1.83,332.0,2.13,13.29,47.59359,-54.27349
2021-10-20 17:24:01+00:00,328.0,1.8,322.0,2.02,13.29,47.59359,-54.27349
2021-10-20 17:34:01+00:00,316.0,1.86,318.0,2.18,13.29,47.59359,-54.27349
2021-10-20 17:44:01+00:00,309.0,2.16,303.0,2.47,13.29,47.59359,-54.27349
2021-10-20 17:54:01+00:00,297.0,2.41,301.0,2.76,13.29,47.59359,-54.27349
2021-10-20 18:04:01+00:00,285.0,2.41,288.0,2.57,13.29,47.59359,-54.27349
2021-10-20 18:14:01+00:00,288.0,2.66,287.0,2.82,13.21,47.59359,-54.27349
2021-10-20 18:24:01+00:00,277.0,2.62,280.0,2.95,13.21,47.59359,-54.27349
2021-10-20 18:34:01+00:00,273.0,2.76,271.0,3.13,13.21,47.59359,-54.27349
2021-10-20 18:44:01+00:00,272.0,2.36,274.0,2.69,13.21,47.59359,-54.27349
2021-10-20 18:54:01+00:00,271.0,2.57,268.0,2.85,13.21,47.59359,-54.27349
2021-10-20 19:04:01+00:00,265.0,2.92,268.0,3.11,13.21,47.59359,-54.27349
2021-10-20 19:14:01+00:00,258.0,3.43,257.0,3.85,13.13,47.59359,-54.27349
2021-10-20 19:24:01+00:00,247.0,3.34,247.0,3.7,13.13,47.59359,-54.27349
2021-10-20 19:34:01+00:00,253.0,3.09,252.0,3.55,13.13,47.59359,-54.27349
2021-10-20 19:44:01+00:00,249.0,3.61,253.0,4.02,13.13,47.59359,-54.27349
2021-10-20 19:54:01+00:00,249.0,3.74,250.0,4.05,13.13,47.59359,-54.27349
2021-10-20 20:04:01+00:00,246.0,3.72,244.0,4.14,13.13,47.59359,-54.27349
2021-10-20 20:14:00+00:00,250.0,4.21,248.0,4.59,12.81,47.59359,-54.27349
2021-10-20 20:24:00+00:00,250.0,4.25,250.0,4.56,12.81,47.59359,-54.27349
2021-10-20 20:34:00+00:00,251.0,3.69,251.0,4.18,12.81,47.59359,-54.27349
2021-10-20 20:44:00+00:00,253.0,3.33,252.0,3.51,12.81,47.59359,-54.27349
2021-10-20 20:54:00+00:00,262.0,3.78,262.0,4.0,12.81,47.59359,-54.27349
2021-10-20 21:04:00+00:00,267.0,2.85,270.0,3.37,12.81,47.59359,-54.27349
2021-10-20 21:14:01+00:00,281.0,3.31,283.0,3.59,12.65,47.59359,-54.27349
2021-10-20 21:24:01+00:00,286.0,3.69,292.0,4.03,12.65,47.59359,-54.27349
2021-10-20 21:34:01+00:00,289.0,3.27,290.0,3.52,12.65,47.59359,-54.27349
2021-10-20 21:44:01+00:00,288.0,3.56,292.0,4.21,12.65,47.59359,-54.27349
2021-10-20 21:54:01+00:00,289.0,2.86,287.0,3.11,12.65,47.59359,-54.27349
2021-10-20 22:04:01+00:00,307.0,3.45,302.0,3.75,12.65,47.59359,-54.27349
2021-10-20 22:14:01+00:00,310.0,3.43,317.0,3.78,12.65,47.59359,-54.27349
2021-10-20 22:24:01+00:00,322.0,4.28,324.0,4.57,12.65,47.59359,-54.27349
2021-10-20 22:34:01+00:00,329.0,4.07,332.0,4.6,12.65,47.59359,-54.27349
2021-10-20 22:44:01+00:00,329.0,5.13,330.0,5.9,12.65,47.59359,-54.27349
2021-10-20 22:54:01+00:00,330.0,3.62,330.0,4.25,12.65,47.59359,-54.27349
2021-10-20 23:04:01+00:00,321.0,3.61,318.0,4.04,12.65,47.59359,-54.27349
2021-10-20 23:14:00+00:00,305.0,3.28,305.0,3.85,12.57,47.59359,-54.27349
2021-10-20 23:24:00+00:00,301.0,3.31,312.0,3.98,12.57,47.59359,-54.27349
2021-10-20 23:34:00+00:00,310.0,4.47,323.0,5.05,12.57,47.59359,-54.27349
2021-10-20 23:44:00+00:00,311.0,4.83,312.0,5.59,12.57,47.59359,-54.27349
2021-10-20 23:54:00+00:00,308.0,3.97,310.0,4.5,12.57,47.59359,-54.27349
